Terug naar catalogus

DUCHIFAT 1

ActiefAmateurradioPO
NORAD 40021·PAYLOAD·🇮🇱 Israel

Gelanceerd Jun 19, 2014 vanaf Dombarovsky

Loading…

Volgende Passages (komende 24 uur)

TLE

VersSource: Space-Track

Epoch: Sep 13, 2026, 17:02 UTC

1 40021U 14033M   26256.70989409  .01461434  15217-2  15218-2 0  9995
2 40021  98.0135 330.2930 0008231 258.3689 101.6670 16.10844302669719

Volg DUCHIFAT 1 in realtime met AllMySat

Download on the App Store